Skip Page Navigation
NASA JPL Caltech
NASA Logo - Jet Propulsion Laboratory + View the NASA Portal
+ Center for Near-Earth Object Studies
JPL Home Earth Solar System Stars & Galaxies Technology
JPL Solar System Dynamics
BODIES ORBITS EPHEMERIDES TOOLS PHYSICAL DATA DISCOVERY FAQ SITE MAP
JPL Small-Body Database Browser
Search: [ help ]  
379187 (2009 RV63)
Classification: Jupiter Trojan          SPK-ID: 2379187
Ephemeris | Orbit Diagram | Orbital Elements | Mission Design | Physical Parameters | Discovery Circumstances ]

[ show orbit diagram ]
Orbital Elements at Epoch 2459000.5 (2020-May-31.0) TDB
Reference: JPL 11 (heliocentric ecliptic J2000)
 Element Value Uncertainty (1-sigma)   Units 
e .06848084948184213 1.2306e-07  
a 5.152960094733016 3.5671e-07 au
q 4.800081010099666 5.4953e-07 au
i 22.23560106786021 1.4791e-05 deg
node 13.20300755853257 2.5304e-05 deg
peri 117.3782260095902 0.00013169 deg
M 215.6112429577866 0.00012319 deg
tp 2460714.119804795479
(2025-Feb-07.61980480)
0.0015109 TDB
period 4272.514996067286
11.70
0.00044364
1.215e-06
d
yr
n .08425950531042455 8.7491e-09 deg/d
Q 5.505839179366367 3.8113e-07 au
  Orbit Determination Parameters
   # obs. used (total)      148  
   data-arc span      5197 days (14.23 yr)  
   first obs. used      2002-03-20  
   last obs. used      2016-06-11  
   planetary ephem.      DE431  
   SB-pert. ephem.      SB431-N16  
   condition code      0  
   norm. resid. RMS      .53322  
   source      ORB  
   producer      Otto Matic  
   solution date      2017-Apr-09 23:38:46  

Additional Information
 Earth MOID = 3.87077 au 
 Jupiter MOID = .355543 au 
 T_jup = 2.848 
[ show covariance matrix ]

Ephemeris | Orbit Diagram | Orbital Elements | Mission Design | Physical Parameters | Discovery Circumstances ]

Physical Parameter Table
Parameter Symbol Value Units Sigma Reference Notes
absolute magnitude H 13.3   n/a MPO297750  

379187 (2009 RV63)          Discovered 2009-Sep-15 by Spacewatch at Kitt Peak
Reference: Last Updated: 2013-11-20
Ephemeris | Orbit Diagram | Orbital Elements | Mission Design | Physical Parameters | Discovery Circumstances ]
ABOUT SSD CREDITS/AWARDS PRIVACY/COPYRIGHT GLOSSARY LINKS
FirstGov 2020-Jul-14 07:24 UT
(server date/time)  
NASA Home Page
Site Manager:   Ryan S. Park
Webmaster  Alan B. Chamberlin